EW4074 Weather Reports


Display with metric or nautical units.
time (UTC)temp
F
wind
direction
speed
MPH
gust
MPH
rain 1hr
in
rain 24hr
in
rain mn
in
humidity
%
barometer
mb
20260905064931 69 231 0.0 0.0 0.00 0.26 0.00 95 1040.8
20260905064642 69 232 0.0 0.0 0.00 0.26 0.00 95 1040.8
20260905063906 69 232 0.0 0.0 0.00 0.26 0.00 94 1040.8
20260905063354 69 231 0.0 0.0 0.00 0.26 0.00 94 1041.0
20260905062844 70 231 0.0 0.0 0.00 0.26 0.00 94 1041.0
20260905062336 70 231 0.0 0.0 0.00 0.26 0.00 93 1041.3
20260905061830 70 231 0.0 0.0 0.00 0.26 0.00 93 1041.3
20260905061322 70 231 0.0 1.0 0.00 0.26 0.00 93 1041.3
20260905060817 71 231 0.0 2.0 0.00 0.26 0.00 93 1041.3
20260905060312 71 249 1.0 4.0 0.00 0.26 0.00 93 1041.3
20260905055801 71 230 1.0 4.0 0.00 0.26 0.00 93 1041.3
20260905055259 71 252 0.0 3.0 0.00 0.26 0.00 93 1041.5
20260905054754 71 241 0.0 2.0 0.00 0.26 0.00 93 1041.5
20260905054248 71 193 0.0 2.0 0.00 0.26 0.00 93 1041.5
20260905053741 71 218 0.0 3.0 0.00 0.26 0.00 94 1041.8
20260905053237 70 258 0.0 3.0 0.00 0.26 0.00 94 1041.8
20260905052730 70 207 0.0 1.0 0.00 0.26 0.00 94 1041.8
20260905052216 70 265 0.0 1.0 0.00 0.26 0.00 94 1042.2
20260905051718 70 240 0.0 3.0 0.00 0.26 0.00 95 1042.2
20260905051211 70 247 0.0 3.0 0.00 0.26 0.00 95 1042.2
20260905050706 70 277 0.0 2.0 0.00 0.26 0.00 95 1042.3
20260905050422 70 275 0.0 2.0 0.00 0.26 0.00 96 1042.3
20260905045646 70 238 0.0 2.0 0.00 0.26 0.00 96 1042.3
20260905045148 70 302 0.0 2.0 0.00 0.26 0.00 96 1042.2
20260905044634 70 304 0.0 2.0 0.00 0.26 0.00 96 1042.2
20260905044136 70 350 0.0 1.0 0.00 0.26 0.00 96 1042.2
20260905043852 70 257 0.0 1.0 0.00 0.26 0.00 97 1042.2
20260905043123 70 35 0.0 1.0 0.00 0.26 0.00 97 1042.2
20260905042617 70 38 0.0 1.0 0.00 0.26 0.00 97 1042.2
20260905042326 70 15 0.0 0.0 0.00 0.26 0.00 97 1042.1
20260905041606 70 292 0.0 1.0 0.00 0.27 0.00 97 1042.1
20260905041100 70 292 0.0 1.0 0.00 0.27 0.00 97 1042.1
20260905040817 70 299 0.0 1.0 0.00 0.29 0.00 97 1042.3
20260905040048 70 295 0.0 1.0 0.00 0.29 0.00 97 1042.3
20260905035542 70 295 0.0 1.0 0.00 0.30 0.29 97 1042.3
20260905035035 70 266 0.0 1.0 0.00 0.31 0.29 97 1042.3
20260905034529 70 266 0.0 1.0 0.00 0.31 0.29 98 1042.3
20260905034024 70 266 0.0 1.0 0.00 0.32 0.29 98 1042.3
20260905033734 70 266 0.0 0.0 0.00 0.32 0.29 98 1042.4
20260905033233 70 266 0.0 1.0 0.00 0.32 0.29 98 1042.4
20260905032506 70 266 0.0 1.0 0.00 0.32 0.29 98 1042.4
20260905031959 70 260 0.0 1.0 0.00 0.33 0.29 98 1042.3
20260905031715 70 260 0.0 1.0 0.00 0.33 0.29 99 1042.3
20260905030943 70 260 0.0 1.0 0.00 0.36 0.29 99 1042.3
20260905030442 70 260 0.0 1.0 0.00 0.37 0.29 99 1042.3
20260905025929 70 232 0.0 1.0 0.00 0.37 0.29 99 1042.3
20260905025430 70 227 0.0 0.0 0.00 0.37 0.29 99 1042.3
20260905024924 70 227 0.0 0.0 0.00 0.38 0.29 98 1042.2
20260905024418 69 227 0.0 0.0 0.00 0.40 0.29 98 1042.2
20260905023912 69 227 0.0 0.0 0.00 0.41 0.29 98 1042.2
20260905023358 70 227 0.0 0.0 0.00 0.46 0.29 98 1042.2
20260905022900 70 227 0.0 0.0 0.00 0.51 0.29 98 1042.2
20260905022354 70 227 0.0 0.0 0.00 0.63 0.29 98 1041.9
20260905021848 70 227 0.0 0.0 0.00 0.65 0.29 98 1041.9
20260905021342 70 227 0.0 0.0 0.00 0.65 0.29 98 1041.9
20260905020848 70 227 0.0 0.0 0.00 0.65 0.29 98 1041.7
20260905020329 70 227 0.0 0.0 0.00 0.65 0.29 98 1041.7
20260905015817 70 227 0.0 0.0 0.00 0.65 0.29 98 1041.7
20260905015318 70 227 0.0 0.0 0.00 0.65 0.29 98 1041.4
20260905014805 70 227 0.0 0.0 0.00 0.65 0.29 97 1041.4
20260905014306 70 227 0.0 0.0 0.00 0.65 0.29 97 1041.4
20260905013759 70 227 0.0 0.0 0.00 0.65 0.29 98 1041.2
20260905013253 70 227 0.0 0.0 0.00 0.65 0.29 97 1041.2
20260905012747 70 227 0.0 0.0 0.00 0.65 0.29 97 1041.2
20260905012236 71 227 0.0 0.0 0.00 0.65 0.29 97 1041.3
20260905011736 71 227 0.0 0.0 0.00 0.65 0.29 97 1041.3
20260905011223 71 227 0.0 0.0 0.00 0.65 0.29 97 1041.3
20260905010724 71 227 0.0 0.0 0.00 0.65 0.29 97 1041.2
20260905010218 71 227 0.0 0.0 0.00 0.65 0.29 97 1041.2
20260905005931 71 227 0.0 0.0 0.00 0.65 0.29 97 1041.2
20260905005204 71 227 0.0 0.0 0.00 0.65 0.29 97 1041.3
20260905004657 71 227 0.0 0.0 0.00 0.65 0.29 96 1041.3
20260905004152 72 227 0.0 0.0 0.00 0.65 0.29 96 1041.3
20260905003645 72 227 0.0 0.0 0.00 0.65 0.29 96 1041.3
20260905003140 72 227 0.0 0.0 0.00 0.65 0.29 96 1041.3
20260905002636 72 227 0.0 0.0 0.00 0.65 0.29 96 1041.3
20260905002137 72 227 0.0 0.0 0.00 0.65 0.29 96 1040.9
20260905001637 73 227 0.0 0.0 0.00 0.65 0.29 96 1040.9
20260905001137 73 227 0.0 0.0 0.00 0.65 0.29 96 1040.9
20260905000636 73 227 0.0 0.0 0.00 0.65 0.29 95 1041.1
20260905000134 73 227 0.0 0.0 0.00 0.65 0.29 95 1041.1
20260904235634 73 227 0.0 0.0 0.00 0.65 0.29 95 1041.1
20260904235135 73 227 0.0 0.0 0.00 0.65 0.29 95 1041.2
20260904234635 74 227 0.0 0.0 0.00 0.65 0.29 95 1041.2
20260904234133 74 227 0.0 0.0 0.00 0.65 0.29 94 1041.2
20260904233630 74 227 0.0 1.0 0.00 0.65 0.29 94 1041.3
20260904233129 74 227 0.0 1.0 0.00 0.65 0.29 94 1041.3
20260904232629 74 223 0.0 0.0 0.00 0.65 0.29 94 1041.3
20260904232348 74 223 0.0 0.0 0.00 0.65 0.29 94 1041.3
20260904231623 75 223 0.0 0.0 0.00 0.65 0.29 93 1041.3
20260904231112 75 223 0.0 0.0 0.00 0.65 0.29 93 1041.3
20260904230830 75 230 0.0 0.0 0.00 0.65 0.29 93 1041.2
20260904230113 75 230 0.0 1.0 0.00 0.65 0.29 93 1041.2
20260904225612 76 230 0.0 2.0 0.00 0.65 0.29 92 1041.2
20260904225112 76 230 0.0 2.0 0.00 0.65 0.29 93 1041.6
20260904224613 76 246 1.0 3.0 0.00 0.65 0.29 93 1041.6
20260904224113 76 238 0.0 3.0 0.00 0.65 0.29 92 1041.6
20260904223612 76 254 0.0 1.0 0.00 0.65 0.29 92 1041.8
20260904223335 76 272 0.0 2.0 0.00 0.65 0.29 92 1041.8
20260904222612 76 243 0.0 3.0 0.00 0.65 0.29 92 1041.8
20260904222112 76 265 1.0 5.0 0.00 0.65 0.29 92 1041.8
20260904221612 76 234 1.0 5.0 0.00 0.65 0.29 92 1041.8
20260904221113 76 264 1.0 4.0 0.00 0.65 0.29 93 1041.8
20260904220612 76 265 1.0 4.0 0.00 0.65 0.29 93 1041.6
20260904220113 76 269 1.0 4.0 0.00 0.65 0.29 93 1041.6
20260904215613 76 259 0.0 3.0 0.00 0.65 0.29 94 1041.6
20260904215113 76 253 0.0 2.0 0.00 0.65 0.29 94 1041.6
20260904214612 76 276 0.0 1.0 0.00 0.65 0.29 94 1041.6
20260904214110 76 225 0.0 0.0 0.00 0.65 0.29 94 1041.6
20260904214044 76 136 0.0 1.0 0.00 0.65 0.29 93 1042.1
20260904213323 76 241 0.0 1.0 0.00 0.65 0.29 93 1042.1
20260904212553 75 252 0.0 2.0 0.00 0.65 0.29 93 1042.1
20260904212046 75 275 1.0 5.0 0.00 0.65 0.29 93 1042.1
20260904211540 75 234 1.0 5.0 0.00 0.65 0.29 93 1042.1
20260904211034 75 281 1.0 4.0 0.00 0.65 0.29 93 1042.1
20260904210745 75 288 1.0 4.0 0.00 0.65 0.29 93 1042.3
20260904210018 75 157 1.0 3.0 0.00 0.65 0.29 93 1042.3
20260904205516 75 221 1.0 3.0 0.00 0.65 0.29 93 1042.3
20260904205235 75 260 0.0 5.0 0.00 0.65 0.29 93 1042.3
20260904204504 74 243 1.0 3.0 0.00 0.65 0.29 94 1042.3
20260904203958 74 250 1.0 3.0 0.00 0.65 0.29 93 1042.3
20260904203455 74 245 1.0 3.0 0.00 0.65 0.29 93 1042.4
20260904202956 74 260 0.0 2.0 0.00 0.65 0.29 94 1042.4
20260904202454 74 232 0.0 2.0 0.01 0.65 0.29 94 1042.4
20260904201951 74 272 0.0 3.0 0.01 0.65 0.29 94 1042.2
20260904201452 74 219 1.0 4.0 0.01 0.65 0.29 94 1042.2
20260904200951 74 240 1.0 4.0 0.06 0.65 0.29 94 1042.2
20260904200449 74 261 1.0 4.0 0.21 0.65 0.29 95 1041.7
20260904195950 74 232 1.0 4.0 0.25 0.65 0.29 94 1041.7
20260904195450 74 248 0.0 3.0 0.25 0.65 0.29 94 1041.7
20260904194950 74 236 0.0 1.0 0.25 0.65 0.29 94 1041.8
20260904194710 74 147 0.0 1.0 0.25 0.65 0.29 94 1041.8
20260904193948 75 147 0.0 2.0 0.25 0.65 0.29 93 1041.8
20260904193931 75 146 1.0 5.0 0.25 0.65 0.29 92 1042.2
20260904192943 76 138 2.0 6.0 0.25 0.65 0.29 91 1042.2
20260904192443 76 223 1.0 6.0 0.24 0.64 0.28 90 1042.2
20260904191944 77 254 1.0 6.0 0.24 0.64 0.28 89 1042.3
20260904191446 79 349 3.0 17.0 0.24 0.64 0.28 86 1042.3
20260904190945 83 150 3.0 17.0 0.19 0.59 0.23 79 1042.3
20260904190438 87 209 1.0 7.0 0.01 0.41 0.07 78 1041.4
20260904185927 88 103 0.0 1.0 0.00 0.40 0.04 75 1041.4
20260904185426 89 103 0.0 2.0 0.00 0.40 0.04 74 1041.4
20260904184926 89 103 1.0 3.0 0.00 0.40 0.04 72 1041.6
20260904184426 90 122 1.0 3.0 0.00 0.40 0.04 71 1041.6
20260904183926 90 111 0.0 2.0 0.00 0.40 0.04 70 1041.6
20260904183647 91 173 1.0 5.0 0.00 0.40 0.04 72 1041.7
20260904183153 91 127 2.0 5.0 0.00 0.40 0.04 68 1041.7
20260904182428 92 302 2.0 5.0 0.00 0.40 0.04 69 1041.7
20260904181928 92 244 2.0 6.0 0.00 0.40 0.04 68 1042.3
20260904181422 91 273 2.0 6.0 0.00 0.40 0.04 69 1042.3
20260904180910 91 115 2.0 8.0 0.00 0.40 0.04 69 1042.3
20260904180409 91 270 2.0 9.0 0.00 0.40 0.04 69 1042.3
20260904175909 91 319 2.0 9.0 0.00 0.40 0.04 67 1042.3
20260904175410 91 66 1.0 8.0 0.00 0.40 0.04 72 1042.3
20260904174910 90 227 2.0 7.0 0.00 0.40 0.04 70 1042.4
20260904174409 90 237 3.0 7.0 0.00 0.40 0.04 69 1042.4
20260904173909 90 244 3.0 8.0 0.00 0.40 0.04 70 1042.4
20260904173412 90 275 2.0 8.0 0.00 0.40 0.04 69 1042.7
20260904173137 90 254 1.0 6.0 0.00 0.40 0.04 73 1042.7
20260904172406 89 192 1.0 6.0 0.00 0.40 0.04 71 1042.7
20260904171854 89 241 1.0 6.0 0.00 0.40 0.04 72 1042.9
20260904171342 89 38 2.0 6.0 0.00 0.40 0.04 71 1042.9
20260904170832 89 42 2.0 6.0 0.00 0.40 0.04 73 1043.0
20260904170543 89 59 1.0 5.0 0.00 0.40 0.04 72 1043.0
20260904165819 88 314 1.0 5.0 0.00 0.40 0.04 71 1043.0
20260904165312 88 329 2.0 4.0 0.00 0.40 0.04 70 1043.2
20260904164807 88 306 1.0 4.0 0.00 0.40 0.04 73 1043.2
20260904164300 88 321 1.0 4.0 0.00 0.40 0.04 76 1043.2
20260904163755 87 223 2.0 5.0 0.00 0.40 0.04 71 1043.4
20260904163243 87 132 2.0 5.0 0.00 0.40 0.04 75 1043.4
20260904162741 87 74 2.0 7.0 0.00 0.40 0.04 72 1043.4
20260904162236 87 248 2.0 7.0 0.00 0.40 0.04 73 1043.5
20260904161730 87 227 2.0 6.0 0.00 0.40 0.04 73 1043.5
20260904161224 86 131 2.0 7.0 0.00 0.40 0.04 73 1043.5
20260904160718 86 138 1.0 7.0 0.00 0.40 0.04 74 1043.5
20260904160433 85 254 1.0 4.0 0.00 0.40 0.04 74 1043.5
20260904155701 85 309 2.0 5.0 0.00 0.40 0.04 72 1043.5
20260904155159 85 281 2.0 7.0 0.00 0.40 0.04 76 1043.4
20260904154654 85 236 2.0 7.0 0.00 0.40 0.04 72 1043.4
20260904154148 85 269 2.0 7.0 0.00 0.40 0.04 73 1043.4
20260904153908 85 236 2.0 6.0 0.00 0.40 0.04 73 1043.5
20260904153135 85 222 2.0 5.0 0.00 0.40 0.04 76 1043.5
20260904152629 84 238 2.0 6.0 0.00 0.40 0.04 74 1043.5
20260904152346 84 236 1.0 6.0 0.00 0.40 0.04 74 1043.7
20260904151834 84 252 2.0 7.0 0.00 0.40 0.04 76 1043.7
20260904151104 84 24 3.0 7.0 0.00 0.40 0.04 77 1043.7
20260904150603 83 240 2.0 7.0 0.00 0.40 0.04 77 1043.8
20260904150058 83 253 2.0 7.0 0.00 0.40 0.04 77 1043.8
20260904145552 84 258 1.0 4.0 0.00 0.40 0.04 76 1043.8
20260904145046 83 256 2.0 7.0 0.00 0.40 0.04 78 1043.9
20260904144540 83 254 2.0 7.0 0.00 0.41 0.04 77 1043.9
20260904144034 83 277 1.0 4.0 0.00 0.44 0.04 77 1043.9
20260904143527 83 76 1.0 4.0 0.00 0.45 0.04 79 1043.8
20260904143021 82 236 2.0 4.0 0.00 0.47 0.04 80 1043.8
20260904142511 82 231 2.0 9.0 0.00 0.47 0.04 79 1043.8
20260904142009 82 227 1.0 9.0 0.00 0.47 0.04 79 1044.0
20260904141947 82 310 1.0 4.0 0.00 0.47 0.04 80 1044.0
20260904140957 82 231 0.0 4.0 0.00 0.47 0.04 80 1044.0
20260904140451 82 290 0.0 4.0 0.00 0.47 0.04 84 1043.9
20260904135938 81 277 1.0 4.0 0.00 0.47 0.04 81 1043.9
20260904135439 80 108 1.0 4.0 0.00 0.47 0.04 82 1043.9
20260904134926 80 255 2.0 6.0 0.00 0.47 0.04 83 1043.9
20260904134427 79 236 2.0 6.0 0.00 0.47 0.04 83 1043.9
20260904133922 79 239 1.0 5.0 0.00 0.47 0.04 83 1043.9
20260904133632 79 192 1.0 5.0 0.00 0.47 0.04 86 1044.0
20260904132909 78 256 1.0 4.0 0.00 0.47 0.04 84 1044.0
20260904132618 78 219 1.0 3.0 0.00 0.47 0.04 86 1044.0
20260904131858 78 237 0.0 3.0 0.00 0.47 0.04 86 1043.9
20260904131354 77 243 1.0 2.0 0.00 0.47 0.04 90 1043.9
20260904131113 75 243 1.0 3.0 0.00 0.47 0.04 92 1043.9
20260904130340 74 260 1.0 3.0 0.00 0.47 0.04 92 1043.9
20260904125833 74 260 0.0 1.0 0.00 0.47 0.04 95 1043.9
20260904125327 73 261 1.0 3.0 0.00 0.47 0.04 95 1043.9
20260904124818 73 269 1.0 3.0 0.00 0.47 0.04 97 1043.9
20260904124316 73 213 0.0 1.0 0.00 0.47 0.04 99 1043.9
20260904123803 72 213 0.0 0.0 0.00 0.47 0.04 99 1044.0
20260904123304 71 213 0.0 3.0 0.00 0.47 0.04 99 1044.0
20260904122758 71 213 0.0 3.0 0.00 0.47 0.04 98 1044.0
20260904122252 71 24 0.0 0.0 0.00 0.47 0.04 99 1043.9
20260904121745 71 24 0.0 1.0 0.00 0.47 0.04 99 1043.9
20260904121233 70 24 0.0 2.0 0.00 0.47 0.04 99 1043.9
20260904120733 70 252 0.0 2.0 0.00 0.47 0.04 99 1043.5
20260904120220 70 236 0.0 2.0 0.00 0.47 0.04 99 1043.5
20260904115721 70 103 0.0 0.0 0.00 0.47 0.04 99 1043.5
20260904115705 70 100 0.0 0.0 0.00 0.47 0.04 99 1043.3
20260904114709 69 101 0.0 0.0 0.00 0.47 0.04 99 1043.3
20260904114203 69 100 0.0 0.0 0.00 0.47 0.04 99 1043.3
20260904113650 69 101 0.0 0.0 0.00 0.47 0.04 99 1043.4
20260904113151 69 10 0.0 0.0 0.00 0.47 0.04 99 1043.4
20260904113125 69 10 0.0 0.0 0.00 0.47 0.04 99 1043.4
20260904112140 68 295 0.0 0.0 0.00 0.47 0.04 99 1043.6
20260904111634 68 295 0.0 0.0 0.00 0.47 0.04 99 1043.6
20260904111128 67 295 0.0 0.0 0.00 0.47 0.04 99 1043.6
20260904110621 67 295 0.0 0.0 0.00 0.47 0.04 99 1043.6
20260904110109 67 295 0.0 0.0 0.00 0.47 0.04 99 1043.6
20260904105609 67 295 0.0 0.0 0.00 0.47 0.04 99 1043.6
20260904105103 67 242 0.0 0.0 0.00 0.47 0.04 99 1043.5
20260904104823 67 242 0.0 0.0 0.00 0.47 0.04 99 1043.5
20260904104057 67 242 0.0 0.0 0.00 0.47 0.04 99 1043.5
20260904103557 67 242 0.0 0.0 0.00 0.47 0.04 99 1043.4
20260904103315 67 242 0.0 0.0 0.00 0.47 0.04 99 1043.4
20260904102554 67 269 0.0 0.0 0.00 0.47 0.04 99 1043.4
20260904102055 68 269 0.0 0.0 0.00 0.47 0.04 99 1043.2
20260904101555 68 269 0.0 0.0 0.00 0.47 0.04 99 1043.2
20260904101054 68 269 0.0 0.0 0.00 0.47 0.04 99 1043.2
20260904100821 68 269 0.0 0.0 0.00 0.47 0.04 99 1043.2
20260904100058 68 269 0.0 0.0 0.00 0.47 0.04 99 1043.2
20260904095558 68 286 0.0 0.0 0.00 0.47 0.04 99 1043.2
20260904095052 68 289 0.0 0.0 0.00 0.47 0.04 99 1043.4
20260904094539 68 289 0.0 0.0 0.00 0.47 0.04 99 1043.4
20260904094038 68 289 0.0 0.0 0.00 0.47 0.04 99 1043.4
20260904093538 68 290 0.0 0.0 0.00 0.47 0.04 99 1042.9
20260904093038 68 289 0.0 0.0 0.00 0.47 0.04 99 1042.9
20260904092539 68 289 0.0 0.0 0.00 0.47 0.04 99 1042.9
20260904092038 68 119 0.0 0.0 0.00 0.47 0.04 99 1043.2
20260904091538 68 148 0.0 1.0 0.00 0.47 0.04 99 1043.2
20260904091040 68 158 0.0 3.0 0.00 0.47 0.04 99 1043.2
20260904090541 68 128 0.0 3.0 0.00 0.47 0.04 99 1042.4
20260904090036 68 158 0.0 2.0 0.00 0.47 0.04 99 1042.4
20260904085523 68 159 0.0 0.0 0.00 0.47 0.04 98 1042.4
20260904085011 68 159 0.0 0.0 0.00 0.47 0.04 98 1042.3
20260904084500 68 159 0.0 0.0 0.01 0.47 0.04 99 1042.3
20260904083947 68 159 0.0 0.0 0.01 0.47 0.04 99 1042.3
20260904083435 68 159 0.0 0.0 0.01 0.47 0.04 99 1041.9
20260904082925 67 159 0.0 2.0 0.01 0.47 0.04 99 1041.9
20260904082420 67 156 0.0 2.0 0.01 0.47 0.04 99 1041.9
20260904082125 67 165 0.0 2.0 0.01 0.47 0.04 99 1042.3
20260904081408 67 208 0.0 0.0 0.01 0.47 0.04 98 1042.3
20260904081125 67 208 0.0 0.0 0.01 0.47 0.04 98 1042.3
20260904080356 67 208 0.0 0.0 0.01 0.47 0.04 98 1042.4
20260904075844 67 208 0.0 0.0 0.01 0.47 0.04 98 1042.4
20260904075605 67 208 0.0 0.0 0.01 0.47 0.04 98 1042.3
20260904074837 67 208 0.0 0.0 0.00 0.46 0.03 98 1042.3
20260904074327 67 208 0.0 0.0 0.00 0.46 0.03 98 1042.3
20260904073814 67 208 0.0 0.0 0.00 0.46 0.03 98 1042.3
20260904073541 67 208 0.0 1.0 0.00 0.46 0.03 98 1042.3
20260904073029 67 208 0.0 1.0 0.00 0.46 0.03 98 1042.3
20260904072306 67 309 0.0 0.0 0.00 0.46 0.03 98 1042.3
20260904071757 67 309 0.0 1.0 0.00 0.46 0.03 98 1042.3
20260904071243 67 309 0.0 1.0 0.00 0.46 0.03 98 1042.3
20260904070745 67 199 0.0 0.0 0.00 0.46 0.03 97 1042.3
20260904070239 67 199 0.0 0.0 0.00 0.46 0.03 97 1042.3
20260904070219 67 199 0.0 0.0 0.00 0.46 0.03 97 1042.3